2024/01/27 00:00:00,140.7,-1.0
2024/01/27 00:10:00,140.8,-0.9
2024/01/27 00:20:00,140.9,-1.1
2024/01/27 00:30:00,140.9,-1.0
2024/01/27 00:40:00,141.2,-0.9
2024/01/27 00:50:00,141.1,-0.9
2024/01/27 01:00:00,140.9,-1.1
2024/01/27 01:10:00,141.1,-0.8
2024/01/27 01:20:00,141.0,-1.1
2024/01/27 01:30:00,140.8,-0.8
2024/01/27 01:40:00,140.6,-0.9
2024/01/27 01:50:00,140.5,-1.1
2024/01/27 02:00:00,140.4,-0.9
2024/01/27 02:10:00,140.3,-0.8
2024/01/27 02:20:00,140.2,-0.7
2024/01/27 02:30:00,140.1,-1.0
2024/01/27 02:40:00,140.2,-0.8
2024/01/27 02:50:00,140.2,-1.0
2024/01/27 03:00:00,140.0,-1.1
2024/01/27 03:10:00,139.9,-0.8
2024/01/27 03:20:00,139.8,-1.0
2024/01/27 03:30:00,139.8,-1.0
2024/01/27 03:40:00,139.7,-1.0
2024/01/27 03:50:00,139.9,-0.9
2024/01/27 04:00:00,140.0,-1.0
2024/01/27 04:10:00,140.2,-0.7
2024/01/27 04:20:00,140.3,-0.8
2024/01/27 04:30:00,140.3,-0.9
2024/01/27 04:40:00,140.3,-0.8
2024/01/27 04:50:00,140.3,-1.0
2024/01/27 05:00:00,140.3,-1.0
2024/01/27 05:10:00,140.1,-0.9
2024/01/27 05:20:00,140.0,-0.7
2024/01/27 05:30:00,139.9,-1.0
2024/01/27 05:40:00,139.8,-0.9
2024/01/27 05:50:00,139.8,-0.8
2024/01/27 06:00:00,139.8,-0.8
2024/01/27 06:10:00,139.7,-0.9
2024/01/27 06:20:00,139.7,-1.0
2024/01/27 06:30:00,139.7,-0.9
2024/01/27 06:40:00,139.7,-1.0
2024/01/27 06:50:00,139.7,-0.8
2024/01/27 07:00:00,139.7,-0.8
2024/01/27 07:10:00,139.9,-0.7
2024/01/27 07:20:00,139.9,-0.6
2024/01/27 07:30:00,140.2,-0.4
2024/01/27 07:40:00,140.3,-0.5
2024/01/27 07:50:00,140.2,-0.5
2024/01/27 08:00:00,140.1,-0.5
2024/01/27 08:10:00,139.9,-0.4
2024/01/27 08:20:00,140.0,-0.4
2024/01/27 08:30:00,140.3,-0.4
2024/01/27 08:40:00,140.2,-0.1
2024/01/27 08:50:00,139.8, 0.3
2024/01/27 09:00:00,139.4, 5.7
2024/01/27 09:10:00,139.3, 5.8
2024/01/27 09:20:00,140.0, 2.2
2024/01/27 09:30:00,139.3, 4.5
2024/01/27 09:40:00,138.9, 3.5
2024/01/27 09:50:00,82.9, 7.8
2024/01/27 10:00:00,58.7, 4.2
2024/01/27 10:10:00,114.3, 2.9
2024/01/27 10:20:00,138.1, 2.2
2024/01/27 10:30:00,137.9, 2.6
2024/01/27 10:40:00,137.7, 2.9
2024/01/27 10:50:00,137.7, 2.4
2024/01/27 11:00:00,137.8, 1.8
2024/01/27 11:10:00,137.9, 2.0
2024/01/27 11:20:00,138.0, 2.1
2024/01/27 11:30:00,137.5, 2.2
2024/01/27 11:40:00,137.7, 1.8
2024/01/27 11:50:00,137.7, 1.4
2024/01/27 12:00:00,137.6, 1.8
2024/01/27 12:10:00,137.5, 2.0
2024/01/27 12:20:00,137.7, 1.9
2024/01/27 12:30:00,137.5, 2.2
2024/01/27 12:40:00,137.5, 2.9
2024/01/27 12:50:00,137.1, 4.6
2024/01/27 13:00:00,---, 6.0
2024/01/27 13:10:00,112.5, 5.0
2024/01/27 13:20:00,---, 5.2
2024/01/27 13:30:00,136.2, 4.7
2024/01/27 13:40:00,136.1, 4.2
2024/01/27 13:50:00,135.9, 5.3
2024/01/27 14:00:00,136.3, 4.4
2024/01/27 14:10:00,136.2, 3.6
2024/01/27 14:20:00,136.2, 4.1
2024/01/27 14:30:00,136.4, 3.2
2024/01/27 14:40:00,136.5, 3.4
2024/01/27 14:50:00,136.1, 3.5
2024/01/27 15:00:00,136.2, 2.6
2024/01/27 15:10:00,136.6, 3.0
2024/01/27 15:20:00,136.3, 3.3
2024/01/27 15:30:00,135.9, 4.1
2024/01/27 15:40:00,135.8, 3.6
2024/01/27 15:50:00,136.0, 2.8
2024/01/27 16:00:00,135.9, 2.3
2024/01/27 16:10:00,135.9, 2.0
